Greenville, NC

10:11 PM EST on December 05, 2019 (GMT -0500)
Pitt-Greenville

Weather History for KPGV - November, 2019

Change the Weather History Date:

Friday, November 15, 2019

  Actual Average Record
Temperature  
Mean Temperature 46 °F -  
Max Temperature 50 °F 65 °F 84 °F (1993)
Min Temperature 41 °F 39 °F 24 °F (2014)
Degree Days  
Heating Degree Days 20    
Moisture  
Dew Point 44 °F    
Average Humidity 93    
Maximum Humidity 100    
Minimum Humidity 76    
Precipitation  
Precipitation 0.57 in - - ()
Sea Level Pressure  
Sea Level Pressure 30.17 in    
Wind  
Wind Speed 7 mph ()    
Max Wind Speed 15 mph    
Max Gust Speed 23 mph    
Visibility 8.4 miles    
Events Rain    
Averages and records for this station are not official NWS values.
T = Trace of Precipitation, MM = Missing Value Source: Averaged Metar Reports

Daily Weather History Graph

Daily Weather History Graph

Search for Another Location

Airport or City:

Astronomy

Nov. 15, 2019 Rise Set
Actual Time 6:45 AM EST 5:02 PM EST
Civil Twilight 6:17 AM EST 5:29 PM EST
Nautical Twilight 5:47 AM EST 6:00 PM EST
Astronomical Twilight 5:16 AM EST 6:30 PM EST
Moon 7:40 PM EST (11/15) 9:36 AM EST (11/15)
Length of Visible Light 11h 12m
Length of Day
10h 17m
Waning Gibbous, 90% of the Moon is Illuminated
Nov 15
Waning Gibbous
Nov 19
Last Quarter
Nov 26
New
Dec 4
First Quarter
Dec 12
Full

Hourly Weather History & Observations

Time (EST) Temp. Windchill Dew Point Humidity Pressure Visibility Wind Dir Wind Speed Gust Speed Precip Events Conditions
12:15 AM 44.6 °F 42.2 °F 37.4 °F 76% 30.27 in 10.0 mi NNW 4.6 mph - N/A   Scattered Clouds
12:55 AM 44.6 °F 40.2 °F 37.4 °F 76% 30.26 in 10.0 mi North 8.1 mph - N/A   Mostly Cloudy
1:15 AM 44.6 °F 41.4 °F 37.4 °F 76% 30.26 in 10.0 mi North 5.8 mph - N/A   Scattered Clouds
1:35 AM 44.6 °F 40.7 °F 37.4 °F 76% 30.27 in 10.0 mi North 6.9 mph - N/A   Light Drizzle
2:15 AM 42.8 °F 40.1 °F 37.4 °F 81% 30.26 in 10.0 mi North 4.6 mph - N/A   Drizzle
2:55 AM 41.0 °F 36.4 °F 39.2 °F 93% 30.27 in 7.0 mi North 6.9 mph - N/A Rain Rain
3:35 AM 41.0 °F 35.8 °F 39.2 °F 93% 30.25 in 7.0 mi NNE 8.1 mph - 0.05 in Rain Rain
3:55 AM 42.8 °F 39.3 °F 41.0 °F 93% 30.24 in 10.0 mi NE 5.8 mph - 0.09 in Rain Light Rain
4:35 AM 42.8 °F 40.1 °F 41.0 °F 93% 30.24 in 5.0 mi NE 4.6 mph - 0.07 in Rain Rain
4:55 AM 42.8 °F 40.1 °F 42.8 °F 100% 30.24 in 4.0 mi NNE 4.6 mph - 0.13 in Rain Rain
5:15 AM 42.8 °F 39.3 °F 42.8 °F 100% 30.23 in 7.0 mi NNE 5.8 mph - 0.04 in Rain Rain
5:35 AM 42.8 °F 40.1 °F 42.8 °F 100% 30.22 in 7.0 mi North 4.6 mph - 0.06 in Rain Light Rain
5:55 AM 42.8 °F 41.1 °F 42.8 °F 100% 30.22 in 10.0 mi NNE 3.5 mph - 0.07 in Rain Light Rain
6:15 AM 42.8 °F - 42.8 °F 100% 30.21 in 7.0 mi Calm Calm - N/A   Drizzle
6:35 AM 44.6 °F 43.1 °F 42.8 °F 93% 30.21 in 7.0 mi North 3.5 mph - 0.02 in Rain Rain
6:55 AM 44.6 °F 42.2 °F 42.8 °F 93% 30.21 in 7.0 mi NNE 4.6 mph - 0.03 in   Drizzle
7:15 AM 44.6 °F - 44.6 °F 100% 30.21 in 7.0 mi Calm Calm - 0.01 in   Drizzle
7:35 AM 44.6 °F 43.1 °F 44.6 °F 100% 30.22 in 5.0 mi North 3.5 mph - 0.02 in Rain Rain
7:55 AM 44.6 °F 42.2 °F 44.6 °F 100% 30.22 in 5.0 mi North 4.6 mph - 0.03 in Rain Light Rain
8:15 AM 44.6 °F 40.7 °F 44.6 °F 100% 30.21 in 5.0 mi North 6.9 mph - 0.01 in   Drizzle
8:35 AM 44.6 °F 41.4 °F 44.6 °F 100% 30.22 in 7.0 mi NNE 5.8 mph - 0.02 in   Drizzle
8:55 AM 46.4 °F 43.5 °F 44.6 °F 93% 30.21 in 10.0 mi North 5.8 mph - 0.03 in   Drizzle
9:15 AM 46.4 °F 44.3 °F 44.6 °F 93% 30.21 in 10.0 mi North 4.6 mph - N/A   Drizzle
9:35 AM 46.4 °F 42.4 °F 44.6 °F 93% 30.21 in 10.0 mi NNE 8.1 mph - 0.01 in   Drizzle
9:55 AM 46.4 °F 42.4 °F 44.6 °F 93% 30.21 in 10.0 mi North 8.1 mph - 0.01 in   Drizzle
10:15 AM 46.4 °F 42.9 °F 46.4 °F 100% 30.20 in 10.0 mi NE 6.9 mph - N/A   Drizzle
10:35 AM 46.4 °F 42.9 °F 46.4 °F 100% 30.20 in 10.0 mi NNE 6.9 mph - 0.01 in   Drizzle
10:55 AM 48.2 °F - 46.4 °F 93% 30.19 in 10.0 mi NNE 8.1 mph - 0.01 in   Drizzle
11:15 AM 48.2 °F - 46.4 °F 93% 30.19 in 10.0 mi NNE 10.4 mph - N/A   Light Drizzle
11:35 AM 48.2 °F - 46.4 °F 93% 30.18 in 10.0 mi NNE 9.2 mph - N/A   Light Drizzle
11:55 AM 48.2 °F - 46.4 °F 93% 30.18 in 10.0 mi North 9.2 mph - N/A   Overcast
12:15 PM 48.2 °F - 46.4 °F 93% 30.17 in 10.0 mi North 9.2 mph - N/A   Light Drizzle
12:35 PM 48.2 °F - 46.4 °F 93% 30.16 in 10.0 mi North 9.2 mph - N/A   Light Drizzle
12:55 PM 48.2 °F - 46.4 °F 93% 30.15 in 10.0 mi North 9.2 mph - N/A   Light Drizzle
1:15 PM 48.2 °F - 46.4 °F 93% 30.15 in 7.0 mi NNE 9.2 mph - N/A   Overcast
1:35 PM 48.2 °F - 46.4 °F 93% 30.14 in 10.0 mi NNE 9.2 mph - N/A   Overcast
1:55 PM 48.2 °F - 46.4 °F 93% 30.13 in 10.0 mi NNE 6.9 mph - N/A   Light Drizzle
2:15 PM 50.0 °F - 46.4 °F 87% 30.13 in 10.0 mi NNE 8.1 mph - N/A   Drizzle
2:35 PM 50.0 °F - 46.4 °F 87% 30.13 in 10.0 mi North 9.2 mph - 0.01 in   Drizzle
2:55 PM 50.0 °F - 48.2 °F 94% 30.13 in 10.0 mi NNE 9.2 mph - 0.01 in Rain Rain
3:15 PM 50.0 °F - 46.4 °F 87% 30.13 in 10.0 mi NNE 10.4 mph - 0.01 in Rain Light Rain
3:55 PM 50.0 °F - 48.2 °F 94% 30.10 in 7.0 mi NE 6.9 mph - 0.03 in Rain Rain
4:15 PM 50.0 °F - 48.2 °F 94% 30.10 in 4.0 mi NNE 8.1 mph - 0.02 in Rain Light Rain
4:35 PM 50.0 °F - 48.2 °F 94% 30.09 in 7.0 mi NE 8.1 mph - 0.03 in Rain Rain
4:55 PM 50.0 °F - 48.2 °F 94% 30.11 in 5.0 mi NNE 9.2 mph - 0.04 in Rain Light Rain
5:15 PM 50.0 °F - 48.2 °F 94% 30.11 in 5.0 mi North 8.1 mph - 0.02 in Rain Light Rain
5:55 PM 48.2 °F - 46.4 °F 93% 30.10 in 5.0 mi NNE 12.7 mph 20.7 mph 0.05 in Rain Light Rain
6:15 PM 46.4 °F 40.1 °F 46.4 °F 100% 30.11 in 7.0 mi NNE 15.0 mph 19.6 mph N/A Rain Rain
6:55 PM 44.6 °F 38.8 °F 42.8 °F 93% 30.11 in 10.0 mi NNE 11.5 mph 23.0 mph 0.01 in Rain Light Rain
7:15 PM 44.6 °F 38.8 °F 42.8 °F 93% 30.11 in 5.0 mi NNE 11.5 mph - 0.01 in Rain Light Rain
7:35 PM 44.6 °F 38.4 °F 42.8 °F 93% 30.11 in 5.0 mi NNE 12.7 mph - 0.01 in Rain Light Rain
7:55 PM 44.6 °F 40.2 °F 42.8 °F 93% 30.11 in 10.0 mi North 8.1 mph - 0.02 in Rain Light Rain
8:15 PM 44.6 °F 39.2 °F 42.8 °F 93% 30.11 in 10.0 mi NNE 10.4 mph - 0.01 in Rain Light Rain
8:35 PM 44.6 °F 39.2 °F 42.8 °F 93% 30.10 in 10.0 mi NNE 10.4 mph 17.3 mph 0.01 in   Drizzle
8:55 PM 44.6 °F 38.4 °F 42.8 °F 93% 30.10 in 10.0 mi NNE 12.7 mph - 0.01 in   Light Drizzle
9:15 PM 44.6 °F 38.1 °F 42.8 °F 93% 30.10 in 10.0 mi North 13.8 mph - N/A   Light Drizzle
9:35 PM 44.6 °F 39.7 °F 42.8 °F 93% 30.10 in 10.0 mi North 9.2 mph - N/A   Light Drizzle
9:55 PM 44.6 °F 38.8 °F 42.8 °F 93% 30.10 in 10.0 mi North 11.5 mph - N/A   Overcast
10:15 PM 44.6 °F 38.1 °F 42.8 °F 93% 30.09 in 10.0 mi North 13.8 mph - N/A   Overcast
10:35 PM 44.6 °F 39.2 °F 42.8 °F 93% 30.10 in 7.0 mi North 10.4 mph 17.3 mph N/A   Overcast
10:55 PM 44.6 °F 40.2 °F 42.8 °F 93% 30.10 in 7.0 mi North 8.1 mph - N/A   Overcast
11:15 PM 44.6 °F 39.2 °F 42.8 °F 93% 30.09 in 10.0 mi North 10.4 mph - N/A   Overcast
11:35 PM 44.6 °F 39.2 °F 42.8 °F 93% 30.09 in 7.0 mi NNE 10.4 mph 16.1 mph N/A   Overcast
11:55 PM 44.6 °F 38.4 °F 42.8 °F 93% 30.08 in 10.0 mi North 12.7 mph 20.7 mph N/A   Overcast